TimeCDT,TemperatureF,Dew PointF,Humidity,Sea Level PressureIn,VisibilityMPH,Wind Direction,Wind SpeedMPH,Gust SpeedMPH,PrecipitationIn,Events,Conditions,WindDirDegrees,DateUTC
12:55 AM,66.9,57.0,70,29.95,10.0,SSE,6.9,-,N/A,,Scattered Clouds,160,2013-06-14 05:55:00
1:55 AM,66.0,57.9,75,29.88,10.0,SE,9.2,-,N/A,,Clear,140,2013-06-14 06:55:00
2:55 AM,64.9,57.0,75,29.91,10.0,ESE,6.9,-,N/A,,Clear,120,2013-06-14 07:55:00
3:55 AM,64.9,55.9,73,29.88,10.0,SE,8.1,-,N/A,,Clear,130,2013-06-14 08:55:00
4:55 AM,64.0,55.9,75,29.86,10.0,ESE,11.5,-,N/A,,Clear,120,2013-06-14 09:55:00
5:55 AM,63.0,55.9,78,29.87,10.0,ESE,8.1,-,N/A,,Clear,120,2013-06-14 10:55:00
6:55 AM,64.9,55.0,70,29.87,10.0,SE,11.5,16.1,N/A,,Partly Cloudy,140,2013-06-14 11:55:00
7:55 AM,66.9,55.9,68,29.84,10.0,SE,11.5,17.3,N/A,,Clear,140,2013-06-14 12:55:00
8:55 AM,70.0,55.9,61,29.85,10.0,SSE,13.8,20.7,N/A,,Clear,150,2013-06-14 13:55:00
9:55 AM,73.0,59.0,61,29.82,10.0,SSE,9.2,21.9,N/A,,Mostly Cloudy,150,2013-06-14 14:55:00
10:55 AM,75.9,61.0,60,29.80,10.0,SSE,16.1,23.0,N/A,,Mostly Cloudy,160,2013-06-14 15:55:00
11:55 AM,77.0,62.1,60,29.75,10.0,SSE,16.1,29.9,N/A,,Clear,150,2013-06-14 16:55:00
12:55 PM,79.0,64.9,62,29.75,10.0,SSE,15.0,26.5,N/A,,Clear,160,2013-06-14 17:55:00
1:55 PM,81.0,64.9,58,29.75,10.0,SSE,12.7,20.7,N/A,,Clear,160,2013-06-14 18:55:00
2:55 PM,81.0,64.9,58,29.75,10.0,SSE,10.4,-,0.00,Rain,Light Rain,160,2013-06-14 19:55:00
3:55 PM,82.9,66.0,56,29.73,10.0,SSE,4.6,-,0.00,,Clear,160,2013-06-14 20:55:00
4:55 PM,82.9,66.0,56,29.73,10.0,West,9.2,-,N/A,,Clear,270,2013-06-14 21:55:00
5:55 PM,81.0,64.9,58,29.74,10.0,SW,4.6,-,N/A,,Clear,230,2013-06-14 22:55:00
6:55 PM,82.0,66.9,60,29.74,10.0,WSW,3.5,-,N/A,,Clear,250,2013-06-14 23:55:00
7:55 PM,82.0,69.1,65,29.74,10.0,SW,5.8,-,N/A,,Mostly Cloudy,230,2013-06-15 00:55:00
8:55 PM,79.0,66.9,66,29.76,10.0,WNW,11.5,-,N/A,,Mostly Cloudy,300,2013-06-15 01:55:00
9:55 PM,73.9,64.9,73,29.81,10.0,North,3.5,-,N/A,,Clear,350,2013-06-15 02:55:00
10:55 PM,69.1,64.9,87,29.82,10.0,Calm,Calm,-,N/A,,Clear,0,2013-06-15 03:55:00
11:55 PM,68.0,64.9,90,29.82,10.0,NW,8.1,-,N/A,,Clear,320,2013-06-15 04:55:00